Voltar ao catálogo

CHINASAT 9B

AtivoComunicaçõesGEO
NORAD 49125·PAYLOAD·🇨🇳 China

Lançado Sep 9, 2021 de Xichang Satellite Launch Center

Loading…

TLE

AtualizadoSource: Space-Track

Época: Sep 14, 2026, 14:17 UTC

1 49125U 21080A   26257.59520777 -.00000321  00000-0  00000-0 0  9993
2 49125   0.0488 255.1564 0003327 285.5938 128.5098  1.00273265 18543

Acompanhe CHINASAT 9B em tempo real com AllMySat

Download on the App Store